Home > Weather > Hayward > Past weeks

Flag for U.S.A. Weather for the Past 2 Weeks in Hayward, California, U.S.A.

Now
58 °F

Clear.


Feels Like: 58 °F
Forecast: 50 / 65 °F
Wind: No wind

Location: Hayward Air Terminal

Current Time: Feb 11, 2016 at 10:16:39 PM

Latest Report: Feb 11, 2016 at 8:54 PM


Visibility: 10 mi

Pressure: 30.20 "Hg

Humidity: 75%

Dew point: 50 °F

Location of HaywardLocation

Historic Weather in Hayward — Graph

°F

Hayward Temperature Yesterday

Maximum temperature yesterday: 68 °F (at 2:54 PM)
Minimum temperature yesterday: 46 °F (at 6:54 AM)
Average temperature yesterday: 58 °F

High & Low Weather Summary for the Past Weeks

 TemperatureHumidityPressure
High78 °F (Feb 8, 1:54 PM)100% (Jan 30, 2:54 AM)30.50 "Hg (Jan 30, 2:54 AM)
Low41 °F (Feb 3, 4:54 AM)28% (Feb 8, 1:54 PM)29.79 "Hg (Jan 31, 2:54 PM)
Average54 °F68%30.24 "Hg
* Reported Jan 27 8:54 PM — Feb 11 8:54 PM, Hayward, Weather by CustomWeather, © 2016

Note: Actual official high and low records may vary slightly from our data, if they occured in-between our weather recording intervals... More about our weather records

Advertising

Hayward Weather History for the Previous 24 Hours

 ConditionsComfort  
Time TempWeatherWind HumidityBarometerVisibility
8:54 PM
Thu, Feb 11
58 °FClear.No wind75%30.20 "Hg10 mi
7:54 PM59 °FClear.8 mph72%30.18 "Hg10 mi
6:54 PM61 °FClear.No wind65%30.17 "Hg10 mi
5:54 PM62 °FClear.6 mph65%30.16 "Hg10 mi
4:54 PM67 °FSunny.No wind53%30.14 "Hg10 mi
3:54 PM71 °FSunny.8 mph45%30.14 "Hg10 mi
2:54 PM70 °FSunny.No wind42%30.13 "Hg10 mi
12:54 PM64 °FSunny.5 mph61%30.14 "Hg10 mi
11:54 AM69 °FSunny.No wind49%30.16 "Hg10 mi
10:54 AM63 °FSunny.5 mph63%30.19 "Hg9 mi
9:54 AM60 °FSunny.No wind67%30.19 "Hg8 mi
8:54 AM58 °FSunny.No wind58%30.18 "Hg10 mi
7:54 AM52 °FSunny.3 mph72%30.17 "Hg10 mi
6:54 AM50 °FClear.No wind77%30.17 "Hg10 mi
5:54 AM49 °FClear.No wind80%30.15 "Hg10 mi
4:54 AM51 °FClear.3 mph74%30.14 "Hg10 mi
3:54 AM51 °FClear.No wind77%30.16 "Hg10 mi
2:54 AM52 °FClear.3 mph75%30.16 "Hg10 mi
1:54 AM53 °FClear.3 mph74%30.17 "Hg10 mi
12:54 AM55 °FClear.No wind74%30.17 "Hg10 mi
11:54 PM
Wed, Feb 10
57 °FClear.7 mph69%30.18 "Hg10 mi
10:54 PM59 °FClear.10 mph64%30.18 "Hg10 mi
Weather by CustomWeather, © 2016

See weather overviewHow to use our weather pages